Regional Weather Roundup
Issued by NWS

Home | Current Version | Previous Version | Text Only | Print | Product List | Glossary On
Versions: 1 2 3 4 5 6 7 8 9 10 11 12 13 14 15 16 17 18 19 20 21 22 23 24 25 26 27 28 29 30 31 32 33 34 35 36 37 38 39 40 41 42 43 44 45 46 47 48 49 50
000
ASCA44 KEWX 301120
RWRMX

LATIN AMERICA AND CARIBBEAN REGIONAL WEATHER ROUNDUP
NATIONAL WEATHER SERVICE AUSTIN/SAN ANTONIO TX
500 AM CST FRI JAN 30 2015

NOTE: "FAIR" INDICATED FEW OR NO CLOUDS BELOW 12,000 FEET WITH NO
SIGNIFICANT WEATHER AND/OR OBSTRUCTIONS TO VISIBILITY.

BAJA CALIFORNIA

CITY           SKY/WX    TMP DP  RH WIND       PRES   REMARKS
TIJUANA        MOCLDY    57  52  82 CALM      29.96

NORTHWESTERN MEXICO

CITY           SKY/WX    TMP DP  RH WIND       PRES   REMARKS
DURANGO        CLOUDY    50  37  62 NW3       30.25

NORTHEASTERN MEXICO

CITY           SKY/WX    TMP DP  RH WIND       PRES   REMARKS
MONTERREY      CLOUDY    61  57  88 CALM      30.25F
REYNOSA        MOCLDY    61  59  94 N6        30.26S
TORREON        MOCLDY    61  45  55 NE15      30.19
CD. VICTORIA   PTCLDY    54  54 100 SE3       30.25S

WESTERN MEXICO

CITY           SKY/WX    TMP DP  RH WIND       PRES   REMARKS
GUADALAJARA    PTCLDY    50  36  57 CALM      30.16S
MAZATLAN       MOCLDY    68  64  88 E8        29.84S
P. VALLARTA    DRZL/FOG  73  73 100 CALM      29.87F VSB 1/2
ZACATECAS      CLEAR     52  32  46 CALM      30.28

CENTRAL MEXICO

CITY           SKY/WX    TMP DP  RH WIND       PRES   REMARKS
MEXICO CITY    CLEAR     43  32  65 E5        30.35S WCI  40
MORELIA        PTCLDY    39  32  75 CALM      30.24S
PUEBLA         PTCLDY    39  23  52 N6        30.31  WCI  35
QUERETARO      CLEAR     43  37  81 E9        30.36S WCI  37
S. LUIS POTOSI MOCLDY    46  41  81 CALM      30.33
TOLUCA         PTCLDY    36  28  75 W5        30.36S FOG     WCI  32

SOUTHERN MEXICO

CITY           SKY/WX    TMP DP  RH WIND       PRES   REMARKS
ACAPULCO       PTCLDY    75  72  88 N3        29.89S

YUCATAN PENINSULA

CITY           SKY/WX    TMP DP  RH WIND       PRES   REMARKS
CAMPECHE       CLEAR     63  57  82 CALM      30.13
CANCUN         CLEAR     59  55  88 CALM      30.13R
CD. DEL CARMEN PTCLDY    70  63  78 E7        30.12
COZUMEL          N/A    N/A N/A N/A MISG        N/A
MERIDA         CLEAR     63  57  82 NE5       30.15S
MINATITLAN     MOCLDY    70  63  78 N12       30.11
TAPACHULA      CLEAR     72  61  68 CALM      29.88S
VILLAHERMOSA   CLOUDY    68  66  94 S5        30.14R

CENTRAL AMERICA

CITY           SKY/WX    TMP DP  RH WIND       PRES   REMARKS
BELIZE CITY    MOCLDY    68  64  88 N9        30.08
MANAGUA          N/A     72  63  73 SE5       29.86R

CARIBBEAN

CITY           SKY/WX    TMP DP  RH WIND       PRES   REMARKS
CURACAO        PTCLDY    77  72  83 SE7       29.92R
KINGSTON       PTCLDY    75  66  73 NW7       29.94S
NASSAU         PTCLDY    57  50  77 CALM      30.13
SAN JUAN       MOCLDY    73  72  94 CALM      30.01R
SANTO DOMINGO  PTCLDY    70  68  94 N5        30.00R
ST. KITTS      PTCLDY    73  70  88 NE5       29.97R
ST. MAARTEN    PTCLDY    75  68  78 CALM      29.97S
ST. THOMAS     MOCLDY    75  72  88 NW5       29.99

$$



USA.gov is the U.S. government's official web portal to all federal, state and local government web resources and services.